| time (UTC) | temp F | wind direction | speed MPH | gust MPH | rain 1hr in | rain 24hr in | rain mn in | humidity % | barometer mb |
| 20260503225323 | 59 | 329 | 10.0 | 13.0 | 0.00 | 0.05 | 0.05 | 77 | 1022.5 |
| 20260503224821 | 59 | 311 | 11.0 | 14.0 | 0.00 | 0.05 | 0.05 | 76 | 1022.5 |
| 20260503224319 | 59 | 326 | 12.0 | 14.0 | 0.00 | 0.05 | 0.05 | 76 | 1022.5 |
| 20260503223817 | 59 | 330 | 11.0 | 14.0 | 0.00 | 0.05 | 0.05 | 77 | 1022.6 |
| 20260503223401 | 59 | 327 | 12.0 | 15.0 | 0.00 | 0.05 | 0.05 | 76 | 1022.6 |
| 20260503222830 | 59 | 346 | 9.0 | 15.0 | 0.00 | 0.05 | 0.05 | 78 | 1022.6 |
| 20260503222347 | 59 | 311 | 10.0 | 13.0 | 0.00 | 0.05 | 0.05 | 80 | 1022.6 |
| 20260503221844 | 59 | 333 | 8.0 | 13.0 | 0.00 | 0.05 | 0.05 | 80 | 1022.6 |
| 20260503221321 | 59 | 340 | 8.0 | 13.0 | 0.00 | 0.05 | 0.05 | 80 | 1022.6 |
| 20260503220819 | 59 | 323 | 9.0 | 14.0 | 0.00 | 0.05 | 0.05 | 78 | 1022.5 |
| 20260503220337 | 59 | 335 | 10.0 | 14.0 | 0.00 | 0.05 | 0.05 | 78 | 1022.5 |
| 20260503215815 | 59 | 338 | 12.0 | 15.0 | 0.00 | 0.05 | 0.05 | 76 | 1022.5 |
| 20260503215334 | 59 | 323 | 11.0 | 15.0 | 0.00 | 0.05 | 0.05 | 77 | 1022.5 |
| 20260503214852 | 59 | 327 | 10.0 | 14.0 | 0.00 | 0.05 | 0.05 | 78 | 1022.4 |
| 20260503214328 | 59 | 326 | 11.0 | 16.0 | 0.00 | 0.05 | 0.05 | 79 | 1022.5 |
| 20260503213827 | 59 | 354 | 12.0 | 16.0 | 0.00 | 0.05 | 0.05 | 79 | 1022.4 |
| 20260503213346 | 59 | 330 | 9.0 | 15.0 | 0.00 | 0.05 | 0.05 | 79 | 1022.3 |
| 20260503212822 | 59 | 342 | 12.0 | 15.0 | 0.00 | 0.05 | 0.05 | 78 | 1022.3 |
| 20260503212319 | 59 | 354 | 10.0 | 15.0 | 0.00 | 0.05 | 0.05 | 78 | 1022.3 |
| 20260503211817 | 59 | 332 | 12.0 | 14.0 | 0.00 | 0.05 | 0.05 | 79 | 1022.2 |
| 20260503211315 | 59 | 358 | 10.0 | 14.0 | 0.00 | 0.05 | 0.05 | 79 | 1022.2 |
| 20260503210813 | 59 | 331 | 9.0 | 15.0 | 0.00 | 0.05 | 0.05 | 79 | 1022.2 |
| 20260503210350 | 59 | 320 | 12.0 | 16.0 | 0.00 | 0.05 | 0.05 | 80 | 1022.2 |
| 20260503205824 | 59 | 327 | 11.0 | 16.0 | 0.00 | 0.05 | 0.05 | 80 | 1022.2 |
| 20260503205322 | 60 | 328 | 9.0 | 15.0 | 0.00 | 0.05 | 0.05 | 80 | 1022.0 |
| 20260503204819 | 60 | 328 | 11.0 | 15.0 | 0.00 | 0.05 | 0.05 | 80 | 1022.0 |
| 20260503204316 | 60 | 350 | 10.0 | 14.0 | 0.00 | 0.05 | 0.05 | 80 | 1021.9 |
| 20260503203815 | 60 | 23 | 9.0 | 13.0 | 0.00 | 0.05 | 0.05 | 81 | 1021.9 |
| 20260503203335 | 60 | 340 | 10.0 | 13.0 | 0.00 | 0.05 | 0.05 | 80 | 1021.8 |
| 20260503202813 | 60 | 351 | 9.0 | 13.0 | 0.00 | 0.05 | 0.05 | 80 | 1021.7 |
| 20260503202331 | 60 | 349 | 9.0 | 13.0 | 0.00 | 0.05 | 0.05 | 80 | 1021.7 |
| 20260503201827 | 60 | 331 | 9.0 | 12.0 | 0.00 | 0.05 | 0.05 | 80 | 1021.6 |
| 20260503201325 | 60 | 347 | 8.0 | 13.0 | 0.00 | 0.05 | 0.05 | 81 | 1021.6 |
| 20260503200822 | 60 | 345 | 11.0 | 15.0 | 0.00 | 0.05 | 0.05 | 79 | 1021.5 |
| 20260503200320 | 60 | 329 | 11.0 | 14.0 | 0.00 | 0.05 | 0.05 | 80 | 1021.4 |
| 20260503195822 | 60 | 300 | 9.0 | 13.0 | 0.00 | 0.05 | 0.05 | 80 | 1021.4 |
| 20260503195322 | 60 | 314 | 9.0 | 13.0 | 0.00 | 0.05 | 0.05 | 80 | 1021.4 |
| 20260503194821 | 60 | 349 | 9.0 | 14.0 | 0.00 | 0.05 | 0.05 | 80 | 1021.3 |
| 20260503194318 | 60 | 344 | 9.0 | 14.0 | 0.00 | 0.05 | 0.05 | 78 | 1021.3 |
| 20260503193818 | 60 | 330 | 9.0 | 13.0 | 0.00 | 0.05 | 0.05 | 80 | 1021.2 |
| 20260503193318 | 60 | 319 | 8.0 | 12.0 | 0.00 | 0.05 | 0.05 | 79 | 1021.1 |
| 20260503192834 | 60 | 329 | 9.0 | 13.0 | 0.00 | 0.05 | 0.05 | 78 | 1021.1 |
| 20260503192331 | 60 | 332 | 8.0 | 13.0 | 0.00 | 0.05 | 0.05 | 77 | 1021.0 |
| 20260503191829 | 60 | 345 | 9.0 | 15.0 | 0.00 | 0.05 | 0.05 | 78 | 1021.0 |
| 20260503191327 | 60 | 337 | 12.0 | 15.0 | 0.00 | 0.05 | 0.05 | 77 | 1020.9 |
| 20260503190844 | 60 | 328 | 10.0 | 14.0 | 0.00 | 0.05 | 0.05 | 78 | 1020.9 |
| 20260503190323 | 61 | 335 | 10.0 | 14.0 | 0.00 | 0.05 | 0.05 | 78 | 1020.9 |
| 20260503185819 | 61 | 323 | 10.0 | 16.0 | 0.00 | 0.05 | 0.05 | 79 | 1020.8 |
| 20260503185317 | 61 | 335 | 11.0 | 16.0 | 0.00 | 0.05 | 0.05 | 78 | 1020.8 |
| 20260503184813 | 60 | 335 | 11.0 | 15.0 | 0.00 | 0.05 | 0.05 | 78 | 1020.8 |
| 20260503184332 | 61 | 328 | 10.0 | 14.0 | 0.00 | 0.05 | 0.05 | 78 | 1020.8 |
| 20260503183822 | 61 | 339 | 11.0 | 14.0 | 0.00 | 0.05 | 0.05 | 78 | 1020.8 |
| 20260503183322 | 61 | 329 | 12.0 | 15.0 | 0.00 | 0.05 | 0.05 | 78 | 1020.8 |
| 20260503182838 | 61 | 342 | 11.0 | 15.0 | 0.00 | 0.05 | 0.05 | 79 | 1020.7 |
| 20260503182312 | 61 | 326 | 11.0 | 16.0 | 0.00 | 0.05 | 0.05 | 78 | 1020.8 |
| 20260503181826 | 61 | 354 | 12.0 | 16.0 | 0.00 | 0.05 | 0.05 | 77 | 1020.8 |
| 20260503181324 | 61 | 319 | 13.0 | 15.0 | 0.00 | 0.05 | 0.05 | 77 | 1020.7 |
| 20260503180822 | 61 | 343 | 11.0 | 15.0 | 0.00 | 0.05 | 0.05 | 79 | 1020.7 |
| 20260503180322 | 61 | 343 | 11.0 | 15.0 | 0.00 | 0.05 | 0.05 | 78 | 1020.7 |
| 20260503175827 | 61 | 346 | 11.0 | 14.0 | 0.00 | 0.05 | 0.05 | 80 | 1020.7 |
| 20260503175412 | 61 | 335 | 11.0 | 14.0 | 0.00 | 0.05 | 0.05 | 80 | 1020.7 |
| 20260503174846 | 61 | 333 | 8.0 | 11.0 | 0.00 | 0.05 | 0.05 | 83 | 1020.7 |
| 20260503174344 | 61 | 338 | 9.0 | 11.0 | 0.00 | 0.05 | 0.05 | 83 | 1020.8 |
| 20260503173821 | 61 | 330 | 9.0 | 11.0 | 0.00 | 0.05 | 0.05 | 82 | 1020.9 |
| 20260503173320 | 61 | 332 | 8.0 | 12.0 | 0.00 | 0.05 | 0.05 | 83 | 1020.9 |
| 20260503172838 | 61 | 348 | 8.0 | 12.0 | 0.00 | 0.05 | 0.05 | 83 | 1020.9 |
| 20260503172335 | 61 | 346 | 9.0 | 12.0 | 0.00 | 0.05 | 0.05 | 83 | 1020.9 |
| 20260503171812 | 61 | 325 | 8.0 | 10.0 | 0.00 | 0.05 | 0.05 | 84 | 1020.9 |
| 20260503171350 | 61 | 338 | 6.0 | 10.0 | 0.00 | 0.05 | 0.05 | 85 | 1020.9 |
| 20260503170827 | 61 | 333 | 7.0 | 10.0 | 0.00 | 0.05 | 0.05 | 85 | 1021.0 |
| 20260503170346 | 61 | 338 | 6.0 | 11.0 | 0.00 | 0.05 | 0.05 | 85 | 1020.9 |
| 20260503150852 | 61 | 329 | 11.0 | 13.0 | 0.00 | 0.05 | 0.05 | 81 | 1021.1 |
| 20260503150329 | 61 | 318 | 10.0 | 12.0 | 0.00 | 0.05 | 0.05 | 80 | 1021.1 |
| 20260503131327 | 61 | 325 | 8.0 | 9.0 | 0.00 | 0.05 | 0.05 | 84 | 1021.3 |
| 20260503130845 | 61 | 322 | 7.0 | 9.0 | 0.00 | 0.05 | 0.05 | 84 | 1021.3 |
| 20260503130322 | 61 | 333 | 8.0 | 9.0 | 0.00 | 0.05 | 0.05 | 85 | 1021.3 |
| 20260503110817 | 62 | 303 | 2.0 | 6.0 | 0.01 | 0.05 | 0.05 | 85 | 1021.7 |
| 20260503110336 | 62 | 304 | 2.0 | 8.0 | 0.01 | 0.05 | 0.05 | 85 | 1021.6 |
| 20260503090322 | 61 | 261 | 1.0 | 8.0 | 0.00 | 0.16 | 0.00 | 84 | 1021.3 |
| 20260503081340 | 62 | 292 | 2.0 | 6.0 | 0.00 | 0.27 | 0.00 | 81 | 1021.2 |
| 20260503080817 | 62 | 280 | 2.0 | 5.0 | 0.00 | 0.27 | 0.00 | 81 | 1021.1 |
| 20260503080335 | 62 | 299 | 2.0 | 4.0 | 0.00 | 0.27 | 0.00 | 81 | 1021.1 |
| 20260503072813 | 61 | 269 | 1.0 | 6.0 | 0.00 | 0.36 | 0.00 | 84 | 1020.9 |
| 20260503072332 | 60 | 290 | 1.0 | 5.0 | 0.00 | 0.36 | 0.00 | 84 | 1021.0 |
| 20260503071828 | 60 | 295 | 2.0 | 5.0 | 0.00 | 0.36 | 0.00 | 85 | 1021.0 |
| 20260503071327 | 60 | 207 | 2.0 | 5.0 | 0.00 | 0.36 | 0.00 | 86 | 1021.0 |
| 20260503070824 | 60 | 255 | 2.0 | 4.0 | 0.00 | 0.36 | 0.00 | 86 | 1021.0 |
| 20260503060322 | 58 | 279 | 1.0 | 3.0 | 0.00 | 0.39 | 0.00 | 88 | 1020.7 |
| 20260503054813 | 58 | 321 | 1.0 | 3.0 | 0.00 | 0.44 | 0.00 | 88 | 1020.6 |
| 20260503054331 | 58 | 295 | 0.0 | 3.0 | 0.00 | 0.44 | 0.00 | 87 | 1020.6 |
| 20260503053827 | 59 | 271 | 1.0 | 3.0 | 0.00 | 0.44 | 0.00 | 87 | 1020.6 |
| 20260503053326 | 59 | 316 | 0.0 | 2.0 | 0.00 | 0.44 | 0.00 | 87 | 1020.5 |
| 20260503052822 | 59 | 312 | 0.0 | 2.0 | 0.00 | 0.44 | 0.00 | 87 | 1020.5 |
| 20260503052320 | 59 | 308 | 0.0 | 2.0 | 0.00 | 0.44 | 0.00 | 87 | 1020.4 |
| 20260503051818 | 59 | 317 | 0.0 | 5.0 | 0.00 | 0.44 | 0.00 | 86 | 1020.4 |
| 20260503051330 | 59 | 323 | 2.0 | 5.0 | 0.00 | 0.44 | 0.00 | 86 | 1020.5 |
| 20260503050827 | 59 | 328 | 1.0 | 5.0 | 0.00 | 0.44 | 0.00 | 86 | 1020.5 |
| 20260503050327 | 59 | 316 | 2.0 | 5.0 | 0.00 | 0.44 | 0.00 | 86 | 1020.5 |
| 20260503045823 | 59 | 289 | 2.0 | 5.0 | 0.00 | 0.44 | 0.00 | 86 | 1020.5 |
| 20260503045322 | 59 | 346 | 2.0 | 5.0 | 0.00 | 0.44 | 0.00 | 86 | 1020.5 |
| 20260503044819 | 59 | 302 | 1.0 | 6.0 | 0.00 | 0.44 | 0.00 | 86 | 1020.5 |
| 20260503044313 | 59 | 301 | 3.0 | 6.0 | 0.00 | 0.44 | 0.00 | 86 | 1020.6 |
| 20260503043851 | 59 | 328 | 2.0 | 6.0 | 0.00 | 0.44 | 0.00 | 86 | 1020.5 |
| 20260503043330 | 59 | 345 | 2.0 | 5.0 | 0.00 | 0.44 | 0.00 | 86 | 1020.5 |
| 20260503042827 | 59 | 290 | 1.0 | 7.0 | 0.00 | 0.44 | 0.00 | 86 | 1020.4 |
| 20260503042326 | 59 | 327 | 2.0 | 7.0 | 0.00 | 0.44 | 0.00 | 87 | 1020.4 |
| 20260503041823 | 59 | 252 | 1.0 | 6.0 | 0.00 | 0.44 | 0.00 | 87 | 1020.3 |
| 20260503041344 | 59 | 316 | 2.0 | 6.0 | 0.00 | 0.44 | 0.00 | 87 | 1020.4 |
| 20260503040820 | 59 | 338 | 2.0 | 5.0 | 0.00 | 0.44 | 0.00 | 87 | 1020.4 |
| 20260503040317 | 59 | 330 | 2.0 | 6.0 | 0.00 | 0.44 | 0.00 | 87 | 1020.5 |
| 20260503035814 | 59 | 305 | 1.0 | 5.0 | 0.00 | 0.44 | 0.00 | 87 | 1020.5 |
| 20260503035313 | 59 | 300 | 2.0 | 4.0 | 0.00 | 0.44 | 0.00 | 87 | 1020.5 |
| 20260503034832 | 59 | 336 | 1.0 | 6.0 | 0.00 | 0.44 | 0.00 | 87 | 1020.5 |
| 20260503034327 | 59 | 349 | 1.0 | 6.0 | 0.00 | 0.44 | 0.00 | 87 | 1020.5 |
| 20260503033821 | 59 | 297 | 2.0 | 6.0 | 0.00 | 0.44 | 0.00 | 88 | 1020.5 |
| 20260503033320 | 59 | 330 | 1.0 | 5.0 | 0.00 | 0.44 | 0.00 | 88 | 1020.6 |
| 20260503032816 | 59 | 33 | 1.0 | 5.0 | 0.00 | 0.44 | 0.00 | 88 | 1020.7 |
| 20260503032335 | 59 | 337 | 1.0 | 5.0 | 0.00 | 0.44 | 0.00 | 88 | 1020.7 |
| 20260503031828 | 59 | 4 | 2.0 | 5.0 | 0.00 | 0.44 | 0.00 | 88 | 1020.8 |
| 20260503031324 | 59 | 328 | 0.0 | 4.0 | 0.00 | 0.44 | 0.00 | 88 | 1020.7 |
| 20260503030822 | 59 | 348 | 1.0 | 5.0 | 0.00 | 0.44 | 0.00 | 88 | 1020.8 |
| 20260503030340 | 59 | 349 | 2.0 | 5.0 | 0.00 | 0.44 | 0.00 | 88 | 1020.7 |
| 20260503025837 | 59 | 328 | 1.0 | 4.0 | 0.00 | 0.44 | 0.00 | 88 | 1020.8 |
| 20260503025313 | 59 | 305 | 1.0 | 5.0 | 0.00 | 0.44 | 0.00 | 88 | 1020.8 |
| 20260503024830 | 59 | 313 | 1.0 | 5.0 | 0.00 | 0.44 | 0.00 | 88 | 1020.8 |
| 20260503024326 | 59 | 314 | 2.0 | 6.0 | 0.00 | 0.44 | 0.00 | 89 | 1020.9 |
| 20260503023825 | 59 | 306 | 2.0 | 6.0 | 0.00 | 0.44 | 0.00 | 89 | 1020.9 |
| 20260503023327 | 59 | 340 | 1.0 | 5.0 | 0.00 | 0.44 | 0.00 | 90 | 1020.9 |
| 20260503022822 | 59 | 318 | 2.0 | 5.0 | 0.00 | 0.44 | 0.00 | 90 | 1021.0 |
| 20260503022321 | 59 | 319 | 1.0 | 5.0 | 0.00 | 0.44 | 0.00 | 90 | 1021.0 |
| 20260503021819 | 59 | 307 | 1.0 | 4.0 | 0.00 | 0.44 | 0.00 | 90 | 1020.9 |
| 20260503021317 | 59 | 318 | 1.0 | 4.0 | 0.00 | 0.44 | 0.00 | 90 | 1021.0 |
| 20260503020816 | 59 | 290 | 1.0 | 4.0 | 0.00 | 0.44 | 0.00 | 90 | 1021.0 |
| 20260503020402 | 60 | 326 | 1.0 | 4.0 | 0.00 | 0.44 | 0.00 | 89 | 1021.0 |
| 20260503015818 | 60 | 328 | 1.0 | 4.0 | 0.00 | 0.44 | 0.00 | 89 | 1021.1 |
| 20260503015315 | 59 | 21 | 0.0 | 6.0 | 0.00 | 0.44 | 0.00 | 88 | 1021.0 |
| 20260503014813 | 59 | 309 | 2.0 | 6.0 | 0.00 | 0.44 | 0.00 | 87 | 1021.1 |
| 20260503014332 | 59 | 310 | 1.0 | 6.0 | 0.00 | 0.44 | 0.00 | 88 | 1021.1 |
| 20260503013829 | 59 | 297 | 2.0 | 6.0 | 0.00 | 0.44 | 0.00 | 88 | 1021.1 |
| 20260503013346 | 59 | 293 | 2.0 | 6.0 | 0.00 | 0.44 | 0.00 | 88 | 1021.1 |
| 20260503012841 | 59 | 283 | 3.0 | 8.0 | 0.00 | 0.44 | 0.00 | 88 | 1021.2 |
| 20260503012315 | 59 | 316 | 3.0 | 8.0 | 0.00 | 0.44 | 0.00 | 88 | 1021.2 |
| 20260503011316 | 60 | 306 | 3.0 | 8.0 | 0.00 | 0.44 | 0.00 | 89 | 1021.4 |
| 20260503010832 | 60 | 350 | 2.0 | 6.0 | 0.00 | 0.44 | 0.00 | 89 | 1021.4 |
| 20260503010333 | 60 | 299 | 2.0 | 6.0 | 0.00 | 0.44 | 0.00 | 89 | 1021.4 |
| 20260503005851 | 60 | 312 | 3.0 | 7.0 | 0.00 | 0.44 | 0.00 | 89 | 1021.4 |
| 20260503005327 | 60 | 339 | 2.0 | 7.0 | 0.00 | 0.44 | 0.00 | 89 | 1021.4 |
| 20260503004823 | 60 | 328 | 2.0 | 6.0 | 0.00 | 0.44 | 0.00 | 90 | 1021.5 |
| 20260503004321 | 60 | 332 | 3.0 | 5.0 | 0.00 | 0.44 | 0.00 | 90 | 1021.6 |
| 20260503003836 | 60 | 13 | 1.0 | 5.0 | 0.00 | 0.44 | 0.00 | 90 | 1021.6 |
| 20260503003334 | 60 | 296 | 2.0 | 5.0 | 0.00 | 0.44 | 0.00 | 90 | 1021.7 |
| 20260503002830 | 60 | 359 | 1.0 | 6.0 | 0.00 | 0.44 | 0.00 | 90 | 1021.7 |
| 20260503002328 | 60 | 280 | 2.0 | 6.0 | 0.00 | 0.44 | 0.00 | 90 | 1021.7 |
| 20260503001825 | 60 | 328 | 0.0 | 5.0 | 0.00 | 0.44 | 0.00 | 90 | 1021.6 |
| 20260503001320 | 60 | 336 | 2.0 | 5.0 | 0.00 | 0.44 | 0.00 | 90 | 1021.7 |
| 20260503000817 | 60 | 308 | 1.0 | 4.0 | 0.00 | 0.44 | 0.00 | 90 | 1021.8 |
| 20260503000333 | 60 | 352 | 1.0 | 4.0 | 0.00 | 0.44 | 0.00 | 91 | 1021.8 |
| 20260502235831 | 60 | 325 | 1.0 | 4.0 | 0.00 | 0.44 | 0.00 | 91 | 1021.8 |
| 20260502235349 | 60 | 335 | 1.0 | 3.0 | 0.00 | 0.44 | 0.00 | 91 | 1021.9 |
| 20260502234824 | 60 | 305 | 0.0 | 4.0 | 0.00 | 0.44 | 0.00 | 91 | 1021.9 |
| 20260502234343 | 60 | 335 | 1.0 | 4.0 | 0.00 | 0.44 | 0.00 | 91 | 1022.0 |
| 20260502233820 | 60 | 261 | 0.0 | 3.0 | 0.00 | 0.44 | 0.00 | 91 | 1022.0 |
| 20260502233339 | 60 | 307 | 1.0 | 5.0 | 0.00 | 0.44 | 0.00 | 91 | 1022.1 |
| 20260502232832 | 60 | 304 | 1.0 | 3.0 | 0.00 | 0.44 | 0.00 | 91 | 1022.1 |
| 20260502232330 | 60 | 262 | 1.0 | 3.0 | 0.00 | 0.44 | 0.00 | 91 | 1022.0 |
| 20260502231828 | 60 | 285 | 1.0 | 3.0 | 0.00 | 0.44 | 0.00 | 91 | 1022.2 |
| 20260502231324 | 60 | 300 | 0.0 | 3.0 | 0.00 | 0.44 | 0.00 | 91 | 1022.2 |
| 20260502230821 | 60 | 290 | 1.0 | 3.0 | 0.00 | 0.44 | 0.00 | 91 | 1022.2 |
| 20260502230334 | 60 | 276 | 1.0 | 3.0 | 0.00 | 0.44 | 0.00 | 92 | 1022.3 |
| 20260502225833 | 60 | 231 | 1.0 | 3.0 | 0.00 | 0.44 | 0.44 | 92 | 1022.3 |